When you browse on this site, cookies collect data to enhance your experience and personalize the content and advertising you see.
Visit our Privacy Policy to learn more. By continuing to use the site, you agree to this use of cookies and data.
EN

Hourly Weather Bremen

Today, 9 August, Sunday

Time Temperature Precipitation Wind Pressure Humidity
00:00 +24°C° 0 mm 2 mps 764 mmHg 75%
01:00 +23°C° 0 mm 2 mps 764 mmHg 76%
02:00 +23°C° 0 mm 2 mps 763 mmHg 76%
03:00 +23°C° 0 mm 2 mps 763 mmHg 76%
04:00 +21°C° 0 mm 2 mps 763 mmHg 76%
05:00 +22°C° 0.1 mm 3 mps 763 mmHg 76%
06:00 +22°C° 0.1 mm 3 mps 763 mmHg 76%
07:00 +22°C° 0.1 mm 3 mps 764 mmHg 76%
08:00 +25°C° 0 mm 3 mps 764 mmHg 71%
09:00 +26°C° 0 mm 3 mps 764 mmHg 66%
10:00 +27°C° 0 mm 3 mps 764 mmHg 61%
11:00 +28°C° 0.1 mm 3 mps 763 mmHg 59%
12:00 +29°C° 0.1 mm 3 mps 763 mmHg 57%
13:00 +30°C° 0.1 mm 3 mps 763 mmHg 54%
14:00 +30°C° 0 mm 3 mps 763 mmHg 55%
15:00 +30°C° 0 mm 3 mps 763 mmHg 56%
16:00 +30°C° 0 mm 3 mps 763 mmHg 57%
17:00 +29°C° 0 mm 4 mps 762 mmHg 60%
18:00 +28°C° 0 mm 4 mps 762 mmHg 64%
19:00 +27°C° 0 mm 4 mps 762 mmHg 67%
20:00 +25°C° 0.4 mm 4 mps 762 mmHg 70%
21:00 +22°C° 0.4 mm 3 mps 762 mmHg 74%
22:00 +20°C° 0.4 mm 3 mps 763 mmHg 77%
23:00 +20°C° 0 mm 3 mps 762 mmHg 80%

Tomorrow, 10 August, Monday

Time Temperature Precipitation Wind Pressure Humidity
00:00 +20°C° 0 mm 3 mps 762 mmHg 84%
01:00 +20°C° 0 mm 2 mps 762 mmHg 87%
02:00 +19°C° 0 mm 2 mps 762 mmHg 89%
03:00 +19°C° 0 mm 3 mps 762 mmHg 91%
04:00 +19°C° 0 mm 3 mps 762 mmHg 93%
05:00 +20°C° 0 mm 3 mps 762 mmHg 91%
06:00 +20°C° 0 mm 3 mps 762 mmHg 89%
07:00 +21°C° 0 mm 4 mps 762 mmHg 87%
08:00 +23°C° 0 mm 4 mps 762 mmHg 81%
09:00 +26°C° 0 mm 4 mps 762 mmHg 76%
10:00 +28°C° 0 mm 3 mps 762 mmHg 70%
11:00 +29°C° 0 mm 4 mps 762 mmHg 65%
12:00 +30°C° 0 mm 4 mps 762 mmHg 59%
13:00 +33°C° 0 mm 4 mps 762 mmHg 54%
14:00 +33°C° 0 mm 4 mps 762 mmHg 52%
15:00 +33°C° 0 mm 4 mps 762 mmHg 51%
16:00 +34°C° 0 mm 4 mps 761 mmHg 49%
17:00 +31°C° 0 mm 3 mps 761 mmHg 55%
18:00 +30°C° 0 mm 3 mps 761 mmHg 61%
19:00 +29°C° 0 mm 3 mps 761 mmHg 67%
20:00 +27°C° 0.1 mm 3 mps 762 mmHg 70%
21:00 +26°C° 0.1 mm 4 mps 762 mmHg 73%
22:00 +25°C° 0.1 mm 4 mps 762 mmHg 76%
23:00 +23°C° 0 mm 4 mps 762 mmHg 79%

Day after tomorrow, 11 August, Tuesday

Time Temperature Precipitation Wind Pressure Humidity
00:00 +23°C° 0 mm 4 mps 762 mmHg 83%
01:00 +22°C° 0 mm 3 mps 763 mmHg 86%
02:00 +22°C° 0.1 mm 3 mps 763 mmHg 88%
03:00 +21°C° 0.1 mm 3 mps 763 mmHg 90%
04:00 +21°C° 0.1 mm 3 mps 763 mmHg 92%
05:00 +21°C° 0 mm 3 mps 763 mmHg 89%
06:00 +22°C° 0 mm 3 mps 762 mmHg 87%
07:00 +22°C° 0 mm 4 mps 762 mmHg 84%
08:00 +25°C° 0 mm 4 mps 763 mmHg 77%
09:00 +27°C° 0 mm 4 mps 763 mmHg 70%
10:00 +29°C° 0 mm 5 mps 763 mmHg 63%
11:00 +30°C° 0 mm 5 mps 763 mmHg 59%
12:00 +32°C° 0 mm 5 mps 763 mmHg 54%
13:00 +33°C° 0 mm 5 mps 763 mmHg 49%
14:00 +33°C° 0 mm 5 mps 762 mmHg 48%
15:00 +33°C° 0 mm 5 mps 762 mmHg 47%
16:00 +33°C° 0 mm 5 mps 762 mmHg 46%
17:00 +32°C° 0 mm 4 mps 762 mmHg 51%
18:00 +29°C° 0 mm 4 mps 762 mmHg 57%
19:00 +28°C° 0 mm 3 mps 762 mmHg 62%
20:00 +27°C° 0 mm 4 mps 762 mmHg 63%
21:00 +26°C° 0 mm 4 mps 763 mmHg 63%
22:00 +25°C° 0 mm 4 mps 763 mmHg 64%
23:00 +23°C° 0 mm 4 mps 763 mmHg 67%

12 August, Wednesday

Time Temperature Precipitation Wind Pressure Humidity
00:00 +22°C° 0 mm 4 mps 763 mmHg 69%
01:00 +22°C° 0 mm 4 mps 763 mmHg 72%
02:00 +21°C° 0 mm 4 mps 763 mmHg 72%
03:00 +21°C° 0 mm 4 mps 763 mmHg 72%
04:00 +20°C° 0 mm 4 mps 763 mmHg 73%
05:00 +21°C° 0 mm 4 mps 762 mmHg 73%
06:00 +21°C° 0 mm 4 mps 762 mmHg 73%
07:00 +22°C° 0 mm 4 mps 762 mmHg 73%
08:00 +25°C° 0 mm 5 mps 762 mmHg 67%
09:00 +27°C° 0 mm 5 mps 762 mmHg 62%
10:00 +29°C° 0 mm 6 mps 762 mmHg 57%
11:00 +30°C° 0 mm 6 mps 762 mmHg 53%
12:00 +30°C° 0 mm 6 mps 762 mmHg 49%
13:00 +32°C° 0 mm 6 mps 762 mmHg 45%
14:00 +32°C° 0 mm 5 mps 761 mmHg 45%
15:00 +32°C° 0 mm 5 mps 761 mmHg 44%
16:00 +32°C° 0 mm 5 mps 761 mmHg 44%
17:00 +30°C° 0 mm 4 mps 761 mmHg 49%
18:00 +28°C° 0 mm 4 mps 761 mmHg 54%
19:00 +27°C° 0 mm 3 mps 761 mmHg 59%
20:00 +26°C° 0 mm 4 mps 761 mmHg 58%
21:00 +23°C° 0 mm 4 mps 761 mmHg 58%
22:00 +22°C° 0 mm 4 mps 761 mmHg 57%
23:00 +21°C° 0 mm 4 mps 761 mmHg 58%

13 August, Thursday

Time Temperature Precipitation Wind Pressure Humidity
00:00 +21°C° 0 mm 4 mps 760 mmHg 59%
01:00 +20°C° 0 mm 4 mps 760 mmHg 61%
02:00 +19°C° 0 mm 4 mps 760 mmHg 63%
03:00 +19°C° 0 mm 4 mps 760 mmHg 65%
04:00 +18°C° 0 mm 4 mps 759 mmHg 68%
05:00 +19°C° 0 mm 4 mps 759 mmHg 68%
06:00 +19°C° 0 mm 4 mps 759 mmHg 69%
07:00 +20°C° 0 mm 5 mps 759 mmHg 69%
08:00 +22°C° 0 mm 5 mps 758 mmHg 65%
09:00 +25°C° 0 mm 5 mps 758 mmHg 61%
10:00 +27°C° 0 mm 5 mps 758 mmHg 58%
11:00 +28°C° 0 mm 5 mps 758 mmHg 52%
12:00 +30°C° 0 mm 5 mps 757 mmHg 47%
13:00 +32°C° 0 mm 5 mps 757 mmHg 41%
14:00 +33°C° 0 mm 5 mps 757 mmHg 41%
15:00 +33°C° 0 mm 5 mps 756 mmHg 41%
16:00 +33°C° 0 mm 4 mps 756 mmHg 41%
17:00 +30°C° 0.3 mm 4 mps 755 mmHg 48%
18:00 +29°C° 0.3 mm 4 mps 755 mmHg 55%
19:00 +27°C° 0.3 mm 4 mps 755 mmHg 62%
20:00 +25°C° 1.3 mm 3 mps 755 mmHg 68%
21:00 +24°C° 1.3 mm 3 mps 755 mmHg 73%
22:00 +21°C° 1.3 mm 3 mps 755 mmHg 79%
23:00 +21°C° 0.7 mm 3 mps 756 mmHg 82%

14 August, Friday

Time Temperature Precipitation Wind Pressure Humidity
00:00 +21°C° 0.7 mm 2 mps 756 mmHg 85%
01:00 +21°C° 0.7 mm 2 mps 756 mmHg 88%
02:00 +21°C° 0 mm 2 mps 756 mmHg 89%
03:00 +21°C° 0 mm 2 mps 755 mmHg 90%
04:00 +21°C° 0 mm 2 mps 755 mmHg 91%
05:00 +22°C° 0 mm 1 mps 755 mmHg 89%
06:00 +23°C° 0 mm 1 mps 755 mmHg 87%
07:00 +24°C° 0 mm 1 mps 756 mmHg 85%
08:00 +25°C° 0.1 mm 1 mps 756 mmHg 79%
09:00 +26°C° 0.1 mm 1 mps 756 mmHg 73%
10:00 +28°C° 0.1 mm 2 mps 756 mmHg 67%
11:00 +28°C° 0.6 mm 2 mps 756 mmHg 65%
12:00 +28°C° 0.6 mm 2 mps 756 mmHg 63%
13:00 +28°C° 0.6 mm 3 mps 756 mmHg 62%
14:00 +26°C° 0.4 mm 3 mps 756 mmHg 68%
15:00 +25°C° 0.4 mm 3 mps 756 mmHg 75%
16:00 +22°C° 0.4 mm 3 mps 756 mmHg 82%
17:00 +22°C° 0.5 mm 3 mps 756 mmHg 85%
18:00 +21°C° 0.5 mm 3 mps 757 mmHg 88%
19:00 +21°C° 0.5 mm 2 mps 757 mmHg 92%
20:00 +20°C° 0.2 mm 3 mps 757 mmHg 92%
21:00 +20°C° 0.2 mm 3 mps 757 mmHg 93%
22:00 +19°C° 0.2 mm 3 mps 758 mmHg 94%
23:00 +19°C° 0 mm 3 mps 758 mmHg 94%
Show more